STARLINK-33776 (63851 NORAD) Tracking and Keplerian Element Data

This shows tracking and keplerian element data for the satellite.

Feedback or suggestion? Click here.




ElementValue
Catalog63851
NameSTARLINK-33776
Epoch Orbit3574
Epoch Day353.78222089
Epoch Year2025
RAAN168.9762
Inclination42.9993
Eccentricity0.000115
Argument of Perigee269.0338
Mean Anonmoly91.0382
Mean Motion15.27598212
Decay Rate0.00013521
L11 63851U 25093R 25353.78222089 .00013521 00000+0 49968-3 0 9998
L22 63851 42.9993 168.9762 0001150 269.0338 91.0382 15.27598212 35742



Live tracking and technical data element details for STARLINK-33776 (NORAD 63851). STARLINK-33776 can be tracked NOW for your location showing map with azimuth and elevation plus other details from your city location.







IsCatalogInMostPopularTable: catalog: 63851, numindb: 12
Update: records affected: 1



GetName: 63851 STARLINK-33776

Hit Count: updated at: Thu, 21 May 2026 12:02:10 GMT